Location: Unspecified
(0.0000°N, 0.0000°E)
Time: 03:28:10
(UTC+00:00)

AO-85 - Visible Passes

Search period start: 04 July 2020 00:00
Search period end: 14 July 2020 00:00
Orbit: 521 x 762 km, 64.8° (Epoch: 12 March)

Date Brightness Start Highest point End Pass type
(mag) Time Alt. Az. Time Alt. Az. Time Alt. Az.
10 Jul ? 20:18:30 10° N 20:19:48 19° N 20:19:48 19° N visible
11 Jul ? 20:42:54 10° NW 20:44:23 20° NW 20:44:23 20° NW visible
12 Jul ? 19:27:44 10° N 19:31:24 28° ENE 19:31:24 28° ENE visible
13 Jul ? 19:51:26 10° NNW 19:56:05 86° WSW 19:56:10 85° SSW visible
